This is the latest recevied weather packets stored in our database for station/object N2RDT. If no packets are shown the sender has not sent any weather packets the latest 10 day(s).
| Time | Temp. | Humidity | Pressure | Rain* | Wind** | Luminosity | Snow |
|---|---|---|---|---|---|---|---|
| 1777897521 | 13.33° C | 76% | 1017.8 hPa | 0 mm | - | 271 W/m² | - |
| 1777897217 | 13.33° C | 74% | 1017.8 hPa | 0 mm | - | 249 W/m² | - |
| 1777896914 | 13.33° C | 79% | 1017.8 hPa | 0 mm | - | 229 W/m² | - |
| 1777896611 | 13.33° C | 74% | 1017.6 hPa | 0 mm | - | 210 W/m² | - |
| 1777896308 | 13.33° C | 76% | 1017.7 hPa | 0 mm | - | 193 W/m² | - |
| 1777896006 | 12.78° C | 76% | 1017.7 hPa | 0 mm | - | 177 W/m² | - |
| 1777895704 | 12.78° C | 76% | 1017.7 hPa | 0 mm | - | 168 W/m² | - |
| 1777895400 | 12.78° C | 76% | 1017.8 hPa | 0 mm | - | 150 W/m² | - |
| 1777895098 | 12.22° C | 78% | 1018 hPa | 0 mm | - | 139 W/m² | - |
| 1777894795 | 11.67° C | 78% | 1017.8 hPa | 0 mm | - | 124 W/m² | - |
| 1777894491 | 10.56° C | 82% | 1018.1 hPa | 0 mm | - | 98 W/m² | - |
| 1777894189 | 10.56° C | 82% | 1018 hPa | 0 mm | - | 98 W/m² | - |
| 1777893886 | 10° C | 84% | 1018 hPa | 0 mm | - | 84 W/m² | - |
| 1777893582 | 9.44° C | 85% | 1017.8 hPa | 0 mm | - | 71 W/m² | - |
| 1777893279 | 9.44° C | 86% | 1018 hPa | 0 mm | - | 66 W/m² | - |
| 1777892975 | 8.89° C | 88% | 1017.8 hPa | 0 mm | - | 59 W/m² | - |
| 1777892672 | 8.33° C | 90% | 1017.8 hPa | 0 mm | - | 51 W/m² | - |
| 1777892368 | 7.78° C | 91% | 1017.7 hPa | 0 mm | - | 43 W/m² | - |
| 1777892064 | 7.22° C | 92% | 1017.6 hPa | 0 mm | - | 36 W/m² | - |
| 1777891762 | 7.22° C | 92% | 1017.5 hPa | 0 mm | - | 29 W/m² | - |
| 1777891458 | 6.67° C | 91% | 1017.6 hPa | 0 mm | - | 23 W/m² | - |
| 1777891154 | 7.22° C | 92% | 1017.5 hPa | 0 mm | - | 18 W/m² | - |
| 1777890849 | 6.67° C | 92% | 1017.3 hPa | 0 mm | - | 14 W/m² | - |
| 1777890545 | 6.67° C | 92% | 1017.4 hPa | 0 mm | - | 10 W/m² | - |
| 1777890240 | 6.67° C | 91% | 1017.5 hPa | 0 mm | - | 7 W/m² | - |
* Rain latest hour (hover to see other rain measurements)
** Current wind speed in m/s (hover to see current wind gust speed)